This demonstration page uses our WeatherBlox Daily Observations layout. Learn more.

41.55636, -103.73856

Hourly Observations for October 20, 2016

Temp ( °F °C ) Dew Point ( °F °C ) Humidity (%) Winds ( mph kmh ) Pressure ( in mb ) Visibility ( mi km ) Precip ( " mm )
12:53 am 00:53 Clear 34 1.1 31 -0.6 89 89 NW 8 13 30.43 1030 10 16.0934 0 0
1:53 am 01:53 Clear 32 0 30 -1.1 92 92 WNW 6 9 30.44 1031 10 16.0934 0 0
2:53 am 02:53 Clear 30 -1.1 28 -2.2 92 92 NW 6 9 30.45 1031 10 16.0934 0 0
3:53 am 03:53 Clear 31 -0.6 28 -2.2 89 89 WNW 7 11 30.47 1032 10 16.0934 0 0
4:53 am 04:53 Clear 30 -1.1 27 -2.8 88 88 undefined N/A 30.47 1032 10 16.0934 0 0
5:53 am 05:53 Clear 29 -1.7 26 -3.3 89 89 undefined N/A 30.48 1032 10 16.0934 0 0
6:53 am 06:53 Clear 29 -1.7 25 -3.9 85 85 WNW 7 11 30.5 1033 10 16.0934 0 0
7:53 am 07:53 Sunny 30 -1.1 27 -2.8 88 88 NNW 6 9 30.48 1032 10 16.0934 0 0
8:53 am 08:53 Sunny 37 2.8 31 -0.6 79 79 NW 7 11 30.47 1032 10 16.0934 0 0
9:53 am 09:53 Sunny 43 6.1 32 0 65 65 NW 7 11 30.46 1031 10 16.0934 0 0
10:53 am 10:53 Sunny 48 8.9 30 -1.1 50 50 NW 7 11 30.42 1030 10 16.0934 0 0
11:53 am 11:53 Sunny 53 11.7 29 -1.7 40 40 NNW 3 6 30.38 1029 10 16.0934 0 0
12:53 pm 12:53 Sunny 58 14.4 21 -6.1 24 24 WNW 9 15 30.34 1028 10 16.0934 0 0
1:53 pm 13:53 Sunny 60 15.6 17 -8.3 19 19 W 12 19 30.29 1026 10 16.0934 0 0
2:53 pm 14:53 Sunny 62 16.7 15 -9.4 16 16 WSW 7 11 30.26 1025 10 16.0934 0 0
3:53 pm 15:53 Sunny 63 17.2 15 -9.4 15 15 W 9 15 30.24 1024 10 16.0934 0 0
4:53 pm 16:53 Sunny 62 16.7 16 -8.9 17 17 WNW 7 11 30.22 1024 10 16.0934 0 0
5:53 pm 17:53 Sunny 53 11.7 22 -5.6 30 30 Calm 30.25 1024 10 16.0934 0 0
6:53 pm 18:53 Clear 47 8.3 28 -2.2 48 48 E 6 9 30.26 1025 10 16.0934 0 0
7:53 pm 19:53 Clear 45 7.2 26 -3.3 48 48 S 3 6 30.26 1025 10 16.0934 0 0
8:53 pm 20:53 Clear 41 5 27 -2.8 57 57 E 7 11 30.24 1024 10 16.0934 0 0
9:53 pm 21:53 Clear 42 5.6 25 -3.9 51 51 E 8 13 30.2 1023 10 16.0934 0 0
10:53 pm 22:53 Clear 44 6.7 25 -3.9 47 47 E 5 7 30.16 1022 10 16.0934 0 0
11:53 pm 23:53 Clear 47 8.3 23 -5 39 39 Calm 30.12 1020 10 16.0934 0 0

Powered by AerisWeather